Content
SEND FEEDBACK

Daily
Averages
Monthly
Summary
United States of America

PARMA, MISSOURI


Home > North America > United States > Missouri
Elevation: 279 feet     Latitude: 36 37N     Longitude: 089 48W

WEATHER
 
SELECT A DAY
Number of Records: 207,775;   Date Range: 1/1/95 - 8/12/14
 
SHARE

PRINT THIS DATA

[ ← Previous Day ]
WEATHER ALMANAC - JANUARY 29, 2014
[ Next Day → ]
[ °C ]   °F
Weather ElementAverageHighLow
Temperature22.6 °F35.1 °F (3:53 pm)9 °F (3:53 am)
Dewpoint6 °F10 °F (7:53 pm)1.9 °F (1:53 am)
Humidity51.9 %73 % (2:53 am)31 % (1:53 pm)
Barometer30.38 in30.47 in (10:53 am)30.26 in (11:53 pm)
Wind Speed6.4 mph13.8 mph (12:53 pm)
Weather ElementAverage
Visibility10 mi
Wind DirectionSE (134.3 °)

Weather ElementTotal
Precipitation---
Heating Degree Days43 (Base 65)
Averaged from 23 records on January 29, 2014
WEATHER CONDITIONS BREAKOUT
WIND DIRECTION BREAKOUT
WEATHER BY HOUR - JANUARY 29, 2014
[ °C ]   °F
Local TimeTemperatureDewpointHumidityBarometerVisibilityWind DirectionWind SpeedGust SpeedPrecipitationEventsConditions
1:53 AM10.0 °F1.9 °F70 %30.46 in10.0 miCalmClear
2:53 AM10.0 °F3.0 °F73 %30.45 in10.0 miCalmClear
3:53 AM9.0 °F1.9 °F73 %30.44 in10.0 miCalmClear
4:53 AM10.0 °F1.9 °F70 %30.44 in10.0 miCalmPartly Cloudy
5:53 AM10.0 °F1.9 °F70 %30.44 in10.0 miCalmClear
6:53 AM9.0 °F1.9 °F73 %30.44 in10.0 miCalmClear
7:53 AM12.9 °F5.0 °F71 %30.45 in10.0 miCalmClear
8:53 AM17.1 °F6.1 °F62 %30.45 in10.0 miSouth (190°)5.8 mphClear
9:53 AM21.0 °F9.0 °F60 %30.46 in10.0 miSSW (210°)8.1 mphClear
10:53 AM27.0 °F8.1 °F45 %30.47 in10.0 miSW (220°)11.5 mphClear
11:53 AM30.0 °F3.9 °F33 %30.43 in10.0 miSSW (200°)10.4 mphClear
12:53 PM30.9 °F3.9 °F32 %30.39 in10.0 miSSW (210°)13.8 mphClear
1:53 PM33.1 °F5.0 °F31 %30.37 in10.0 miSW (220°)8.1 mphClear
2:53 PM33.1 °F7.0 °F34 %30.35 in10.0 miSSW (200°)11.5 mphClear
3:53 PM35.1 °F7.0 °F31 %30.32 in10.0 miSSW (210°)12.7 mphClear
4:53 PM33.1 °F8.1 °F35 %30.32 in10.0 miSouth (170°)8.1 mphClear
5:53 PM30.0 °F9.0 °F41 %30.30 in10.0 miSouth (170°)6.9 mphClear
6:53 PM28.0 °F9.0 °F45 %30.31 in10.0 miSouth (170°)6.9 mphClear
7:53 PM28.0 °F10.0 °F47 %30.30 in10.0 miSouth (180°)9.2 mphClear
8:53 PM27.0 °F9.0 °F47 %30.29 in10.0 miSouth (190°)8.1 mphClear
9:53 PM26.1 °F8.1 °F47 %30.28 in10.0 miSouth (180°)9.2 mphClear
10:53 PM25.0 °F9.0 °F51 %30.27 in10.0 miSouth (180°)9.2 mphClear
11:53 PM24.1 °F9.0 °F53 %30.26 in10.0 miSouth (190°)8.1 mphClear
Hourly data recorded from KPOF, located miles away from Parma, Missouri







STORIES FROM OUR PARTNERS